www.pogodaiklimat.ru

Погода и климат >> Архив погоды >> Новая Зеландия >> Квинстаун


ПОГОДА в Квинстауне

  • Прогноз погоды в Квинстауне
  • Монитор погоды в Квинстауне

АРХИВ ПОГОДЫ в Квинстауне

Время (UTC), дата Ветер
(напр.,м/с)
 
Видим.   Явления Облачность Т
(С)
Тd
(С)
f
(%)
Тe
(С)
Тes
(С)
Комфортность P
(гПа)
Po
(гПа)
Тmin
(С)
Tmax
(С)
R
(мм)
R24
(мм)
S
(см)
06 12.06 СВ 2 20 км н/о +8.3 +8.0 98 +7 +7 1016.0 972.9 2
09 12.06 В 3 20 км н/о +7.5 +7.4 99 +5 +5 1016.8 973.6
12 12.06 СВ 2 20 км н/о +7.3 +7.0 98 +5 +5 1018.5 975.2 +8.9
15 12.06 З 2 50 км н/о +4.8 +4.6 99 +2 +2 1017.6 973.9
18 12.06 СВ 3 20 км н/о +2.0 +1.9 99 -2 -2 1018.1 974.0
21 12.06 СВ 3 500 м н/о +2.0 +2.0 100 -3 -3 1018.7 974.5
00 13.06 СВ 1 20 км н/о +8.0 +7.1 94 +7 +7 1016.8 973.6 +1.3 2
03 13.06 СВ 1 50 км н/о +9.2 +6.6 84 +9 +9 1014.0 971.1
06 13.06 С 2 20 км н/о +6.1 +5.4 95 +3 +3 1014.1 970.8
09 13.06 СВ 1 4000 м н/о +4.1 +3.8 98 +2 +2 1014.9 971.2
12 13.06 С 2 4000 м н/о +5.5 +5.3 99 +3 +3 1013.2 969.8 +10.0
15 13.06 С 3 2000 м н/о +4.5 +4.5 100 +1 +1 1011.8 968.3
18 13.06 С 2 200 м н/о +3.6 +3.6 100 0 0 1010.8 967.2
21 13.06 С 2 1000 м н/о +3.1 +3.1 100 -0 -0 1011.3 967.6
00 14.06 В 1 20 км н/о +5.1 +5.1 100 +4 +4 1010.9 967.6 +3.0
03 14.06 В 1 20 км н/о +6.5 +6.4 99 +5 +5 1009.6 966.5
06 14.06 СВ 1 20 км н/о +5.6 +5.2 97 +5 +5 1010.3 967.1
09 14.06 СВ 2 10 км н/о +5.4 +5.2 99 +3 +3 1011.0 967.7
12 14.06 С 2 20 км н/о +4.8 +4.7 99 +2 +2 1011.6 968.2 +6.8
15 14.06 СВ 2 20 км н/о +4.4 +4.4 100 +1 +1 1011.3 967.8
18 14.06 СВ 2 20 км н/о +4.7 +4.3 97 +2 +2 1010.5 967.1
21 14.06 СВ 3 50 км н/о +4.3 +3.4 94 +1 +1 1011.2 967.7
00 15.06 СВ 1 20 км н/о +6.8 +5.2 90 +6 +6 1010.3 967.2 +3.2
03 15.06 В 1 20 км н/о +7.6 +5.1 84 +8 +8 1008.0 965.2
06 15.06 В 1 20 км н/о +6.4 +4.9 90 +5 +5 1007.9 964.9
09 15.06 СВ 2 50 км н/о +5.5 +4.6 94 +3 +3 1007.9 964.7
12 15.06 СВ 2 50 км н/о +4.6 +3.8 95 +2 +2 1007.6 964.3 +7.7
15 15.06 С 2 50 км н/о +3.2 +2.4 94 +1 +1 1007.2 963.7
18 15.06 З 3 50 км н/о +5.9 +3.6 85 +3 +3 1006.6 963.6
21 15.06 Ю 5 50 км н/о +6.8 +0.8 66 +3 +3 1008.1 965.1
00 16.06 Ю 3 20 км н/о +8.6 -1.7 48 +7 +7 1007.7 965.0 +3.0
03 16.06 З 2 20 км н/о +8.5 -2.7 45 +8 +8 1006.5 963.9
06 16.06 З 2 50 км н/о +7.3 -3.0 48 +6 +6 1006.7 963.9
09 16.06 ЮЗ 5 20 км н/о +6.5 -0.3 62 +3 +3 1007.3 964.3
12 16.06 Ю 3 50 км н/о +5.8 -0.8 63 +3 +3 1008.4 965.3 +9.7
15 16.06 ЮЗ 5 50 км н/о +6.6 -2.4 53 +3 +3 1009.0 966.0
18 16.06 ЮЗ 5 50 км н/о +4.5 0.0 73 0 0 1011.1 967.7
21 16.06 ЮЗ 5 50 км н/о +5.2 -1.1 64 +1 +1 1013.0 969.6
00 17.06 Ю 7 20 км н/о +6.7 +0.8 66 +2 +2 1014.1 970.9 +3.8
03 17.06 Ю 6 20 км н/о +4.7 +2.2 84 -0 -0 1015.9 972.3
06 17.06 ЮВ 3 20 км н/о +4.2 +2.9 91 0 0 1018.2 974.4
09 17.06 ЮВ 3 20 км н/о +4.0 +3.2 95 0 0 1020.1 976.2
12 17.06 СВ 1 50 км н/о +4.2 +3.3 94 +3 +3 1021.3 977.4 +7.1
15 17.06 ЮВ 5 20 км н/о +4.1 +2.9 92 -1 -1 1022.2 978.2
18 17.06 СЗ 1 50 км н/о +3.8 +2.3 90 +3 +3 1023.3 979.2 0.2
21 17.06 СВ 2 50 км н/о +2.8 +1.5 91 0 0 1025.5 981.2
00 18.06 С 2 20 км н/о +5.8 +0.9 71 +4 +4 1025.4 981.5 +2.7 0.2
03 18.06 С 1 20 км н/о +8.0 +1.2 62 +8 +8 1023.7 980.3
06 18.06 С 2 20 км н/о +1.9 0.0 87 -1 -1 1025.0 980.6
09 18.06 СВ 2 20 км н/о -0.8 -1.4 96 -5 -5 1026.6 981.7
12 18.06 С 2 20 км н/о -1.3 -1.7 97 -5 -5 1027.0 982.0 +8.6
15 18.06 СВ 4 50 км н/о -2.0 -2.2 99 -8 -8 1027.9 982.7
18 18.06 СВ 3 50 км н/о -3.0 -3.2 99 -8 -8 1027.9 982.5
21 18.06 СВ 2 20 км н/о -2.6 -3.2 96 -7 -7 1028.6 983.3
00 19.06 СВ 2 20 км н/о +3.7 -0.9 72 +2 +2 1027.3 983.0 -4.0 0.2
03 19.06 СВ 2 20 км н/о +7.4 -0.1 59 +6 +6 1024.5 980.9

 

Местоположение метеостанции Квинстаун (Новая Зеландия): широта -45.01 долгота 168.73 высота над уровнем моря 358 м.

В архиве по умолчанию представлена погода в Квинстауне за последнюю неделю. Архивные данные за месяц целиком и за предыдущие месяцы, начиная с января 2011 года, Вы можете получить, выбрав интересующий диапазон дат из раскрывающегося списка и нажав кнопку "Ввод!".


*Определитесь, кто Вы:
робот инопланетянин человек

Внимание! Время в таблицах - всемирное. Для получения местного времени необходимо прибавить поправку, которая равна 12 ч.

Смотрите также архив погоды в соседних городах и на ближайших метеорологических станциях:

Погода в Тара Хилс (Новая Зеландия) (106 км)
Погода в Хаасте (Новая Зеландия) (130 км)
Погода на Острове Секретари (Новая Зеландия) (147 км)
Погода в Данидине (Новая Зеландия) (151 км)
Погода в Инверкаргилле (Новая Зеландия) (159 км)
Погода на Маяке Puysegur Point (Новая Зеландия) (208 км)
Погода в Тимару (Новая Зеландия) (213 км)
Погода на Мысе Юго-западный (Новая Зеландия) (269 км)
Погода в Хокитике (Новая Зеландия) (313 км)
Погода в Крайстчерче (Новая Зеландия) (346 км)

Пояснения к столбцам:

Ветер - указаны скорость ветра в м/с - средняя за 10 мин, порывы в срок и между сроками (в фигурных скобках) и направление, откуда дует ветер: С - северный, СВ - северо-восточный, В - восточный, ЮВ - юго-восточный, Ю - южный, ЮЗ - юго-западный, З - западный, СЗ - северо-западный.
Видимость - горизонтальная дальность видимости в метрах или километрах. При видимости от 1 до 10 км при отсутствии осадков обычно наблюдается дымка, при ухудшении видимости до 1 км и менее - туман. В сухую погоду видимость может ухудшаться дымом, пылью или мглою.
Явления - указаны атмосферные явления, наблюдавшиеся в срок или в последний час перед сроком; фигурными скобками обозначены явления, наблюдавшиеся между сроками (за 1-3 часа до срока); квадратными скобками обозначены град или гололедные отложения с указанием их диаметра в мм.
Облачность - указаны через наклонную черту общая и нижняя облачность в баллах и высота нижней границы облаков в метрах; квадратными скобками обозначены формы облаков: Ci - перистые, Cs - перисто-слоистые, Cc - перисто-кучевые, Ac - высококучевые, As - высокослоистые, Sc - слоисто-кучевые, Ns - слоисто-дождевые, Cu - кучевые, Cb - кучево-дождевые. Подробнее классификацию облаков см. в Атласе облаков (PDF).
T - Температура воздуха - температура, измеренная на высоте 2 м над землей.
Td - Температура точки росы - температура, при понижении до которой содержащийся в воздухе водяной пар достигнет насыщения.
f - Относительная влажность воздуха - влажноcть воздуха, измеренная на высоте 2 м над землей.
Te - Эффективная температура - температура, которую ощущает одетый по сезону человек в тени. Характеристика душности погоды. При расчете учитывается влияние влажности воздуха и скорости ветра на теплоощущения человека.
Tes - Эффективная температура на солнце - температура, которую ощущает человек, с поправкой на солнечный нагрев. Характеристика знойности погоды. Зависит от высоты солнца над горизонтом, облачности и скорости ветра. Ночью, в пасмурную погоду, а также при ветре 12 м/с и более поправка равна нулю.
P - Атмосферное давление - приведенное к уровню моря атмосферное давление.
Po - Атмосферное давление - измеренное на уровне метеостанции атмосферное давление.
Tmin - Минимальная температура - минимум температуры воздуха на высоте 2 м над землей.
Tmax - Максимальная температура - максимум температуры воздуха на высоте 2 м над землей.
R - Количество осадков - Количество выпавших осадков за период времени, мм. При наведении курсора мыши на число - период времени, за который выпало указанное количество осадков.
R24 - Количество осадков - Количество выпавших осадков за 24 часа, мм.
S - Снежный покров - Высота снежного покрова, см. При наведении курсора мыши на число - состояние снежного покрова и степень покрытия местности в баллах.